Weather History for CXVN - November, 2013

Change the Weather History Date:

Monday, November 11, 2013

  Actual Average Record
Temperature  
Mean Temperature 40 °F -  
Max Temperature 47 °F - - ()
Min Temperature 33 °F - - ()
Degree Days  
Heating Degree Days 24    
Moisture  
Dew Point 30 °F    
Average Humidity 69    
Maximum Humidity 83    
Minimum Humidity 54    
Precipitation  
Precipitation 0.04 in - - ()
Sea Level Pressure  
Sea Level Pressure 30.05 in    
Wind  
Wind Speed 9 mph ()    
Max Wind Speed 18 mph    
Max Gust Speed 26 mph    
T = Trace of Precipitation, MM = Missing Value Source: Averaged Metar Reports

Daily Weather History Graph

Daily Weather History Graph

Search for Another Location

Airport or City:

Trip Planner

Search our weather history database for the weather conditions in past years. The results will help you decide how hot, cold, wet, or windy it might be!

Date:

Astronomy

Nov. 11, 2013 Rise Set
Actual Time 7:05 AM EST 4:57 PM EST
Civil Twilight 6:35 AM EST 5:27 PM EST
Nautical Twilight 6:01 AM EST 6:01 PM EST
Astronomical Twilight 5:27 AM EST 6:35 PM EST
Moon 1:45 PM EST (11/11) 12:39 AM EST (11/11)
Length of Visible Light 10h 52m
Length of Day
9h 51m
Waxing Gibbous, 66% of the Moon is Illuminated
Nov 11
Waxing Gibbous
Nov 17
Full
Nov 25
Last Quarter
Dec 2
New
Dec 9
First Quarter

Hourly Weather History & Observations

Time (EST) Temp. Windchill Dew Point Humidity Pressure Visibility Wind Dir Wind Speed Gust Speed Precip Events Conditions
12:00 AM 36.7 °F 31.2 °F 29.7 °F 76% 30.18 in - WSW 6.9 mph - N/A   Unknown
1:00 AM 37 °F - 30 °F 68% 30.17 in - WSW 5.8 mph - -  
1:00 AM 37.2 °F 32.6 °F 30.2 °F 76% 30.17 in - WSW 5.8 mph - N/A   Unknown
2:00 AM 37.4 °F 32.1 °F 29.8 °F 74% 30.15 in - WSW 6.9 mph - N/A   Unknown
3:00 AM 36.5 °F 30.3 °F 29.1 °F 75% 30.14 in - WSW 8.1 mph - N/A   Unknown
4:00 AM 37.4 °F 30.3 °F 28.6 °F 70% 30.14 in - WSW 10.4 mph - N/A   Unknown
5:00 AM 37.8 °F 32.5 °F 27.9 °F 67% 30.12 in - WSW 6.9 mph - N/A   Unknown
6:00 AM 39.2 °F 34.2 °F 28.4 °F 65% 30.09 in - WSW 6.9 mph - N/A   Unknown
7:00 AM 39 °F - 29 °F 57% 30.06 in - WSW 5.8 mph - -  
7:00 AM 39.2 °F 35.0 °F 28.9 °F 67% 30.06 in - WSW 5.8 mph - N/A   Unknown
8:00 AM 41.9 °F 36.3 °F 31.6 °F 67% 30.06 in - WSW 9.2 mph - N/A   Unknown
9:00 AM 44.2 °F 39.2 °F 33.6 °F 66% 30.03 in - WSW 9.2 mph - N/A   Unknown
10:00 AM 46.8 °F - 37.2 °F 69% 29.98 in - SW 15.0 mph 21.9 mph N/A   Unknown
11:00 AM 45.1 °F 38.1 °F 37.8 °F 75% 29.96 in - SW 16.1 mph 24.2 mph N/A   Unknown
12:00 PM 43.9 °F 37.9 °F 38.5 °F 81% 29.96 in - West 11.5 mph 19.6 mph N/A   Unknown
1:00 PM 44 °F - 35 °F 63% 29.92 in - WSW 12.7 mph - -  
1:00 PM 44.1 °F 37.7 °F 35.4 °F 72% 29.92 in - WSW 12.7 mph 23.0 mph N/A   Unknown
2:00 PM 44.4 °F 37.2 °F 35.8 °F 72% 29.91 in - West 16.1 mph 24.2 mph N/A   Unknown
3:00 PM 42.3 °F 34.1 °F 36.3 °F 79% 29.92 in - West 17.3 mph 23.0 mph N/A   Unknown
4:00 PM 41.9 °F 34.3 °F 36.3 °F 81% 29.93 in - West 15.0 mph - N/A   Unknown
5:00 PM 38.3 °F 28.7 °F 31.5 °F 76% 29.97 in - NW 18.4 mph 26.5 mph 0.03 in   Unknown
6:00 PM 36.5 °F 27.0 °F 31.6 °F 83% 30.01 in - NNW 16.1 mph 23.0 mph N/A   Unknown
7:00 PM 35 °F - 25 °F 57% 30.04 in - NNW 17.3 mph - -  
7:00 PM 35.4 °F 25.3 °F 25.3 °F 67% 30.04 in - NNW 17.3 mph 23.0 mph 0.02 in   Unknown
8:00 PM 34.5 °F 24.8 °F 24.6 °F 67% 30.06 in - NNW 15.0 mph 24.2 mph N/A   Unknown
9:00 PM 34.9 °F 25.7 °F 23.2 °F 62% 30.08 in - North 13.8 mph - N/A   Unknown
10:00 PM 34.2 °F 24.8 °F 18.9 °F 54% 30.10 in - NNW 13.8 mph 20.7 mph N/A   Unknown
11:00 PM 33.4 °F 23.9 °F 18.9 °F 55% 30.12 in - North 13.8 mph 20.7 mph N/A   Unknown